PRIVATE WETTERSTATION BILLIGHEIM-ALLFELD                       ZURCK
Wetterdaten: Mittwoch, 13.01.2016
Datum Zeit Temp. A. Temp. A. min Temp. A. max Feuchte A. Luftdruck Regen Wind Richtung Richtung Sonnenschein ET Solar Taupunkt Windchill Windben Empfang
13.01.2016 00:00 3,2 C 3,1 C 3,2 C 91 % 1004,8 hPa 0,0 l/m 14,5 km/h (3 Bft) SW 225 0 min 0,000 mm 0 W/m 1,9 C -2,8 C 30,6 km/h (5 Bft) 100 %
13.01.2016 00:10 3,3 C 3,2 C 3,3 C 91 % 1004,8 hPa 0,0 l/m 17,7 km/h (3 Bft) SW 225 0 min 0,000 mm 0 W/m 2,0 C -4,3 C 35,4 km/h (5 Bft) 100 %
13.01.2016 00:20 3,3 C 3,3 C 3,3 C 90 % 1004,9 hPa 0,0 l/m 19,3 km/h (3 Bft) S-SW 202 0 min 0,000 mm 0 W/m 1,8 C -5,1 C 32,2 km/h (5 Bft) 100 %
13.01.2016 00:30 3,3 C 3,3 C 3,3 C 90 % 1004,9 hPa 0,0 l/m 20,9 km/h (4 Bft) SW 225 0 min 0,000 mm 0 W/m 1,8 C -5,7 C 35,4 km/h (5 Bft) 89 %
13.01.2016 00:40 3,3 C 3,3 C 3,4 C 90 % 1004,9 hPa 0,0 l/m 17,7 km/h (3 Bft) S-SW 202 0 min 0,000 mm 0 W/m 1,8 C -4,3 C 37,0 km/h (5 Bft) 100 %
13.01.2016 00:50 3,3 C 3,3 C 3,4 C 90 % 1004,9 hPa 0,0 l/m 16,1 km/h (3 Bft) SW 225 0 min 0,000 mm 0 W/m 1,8 C -3,6 C 25,7 km/h (4 Bft) 100 %
13.01.2016 01:00 3,4 C 3,3 C 3,4 C 89 % 1004,8 hPa 0,0 l/m 19,3 km/h (3 Bft) SW 225 0 min 0,025 mm 0 W/m 1,8 C -4,9 C 37,0 km/h (5 Bft) 100 %
13.01.2016 01:10 3,5 C 3,4 C 3,5 C 89 % 1004,8 hPa 0,0 l/m 20,9 km/h (4 Bft) SW 225 0 min 0,000 mm 0 W/m 1,9 C -5,5 C 43,5 km/h (6 Bft) 100 %
13.01.2016 01:20 3,4 C 3,4 C 3,5 C 89 % 1004,9 hPa 0,0 l/m 12,9 km/h (3 Bft) SW 225 0 min 0,000 mm 0 W/m 1,8 C -1,7 C 33,8 km/h (5 Bft) 100 %
13.01.2016 01:30 3,5 C 3,4 C 3,5 C 89 % 1005,0 hPa 0,0 l/m 20,9 km/h (4 Bft) W-SW 247 0 min 0,000 mm 0 W/m 1,9 C -5,5 C 40,2 km/h (6 Bft) 100 %
13.01.2016 01:40 3,5 C 3,4 C 3,5 C 90 % 1005,0 hPa 0,0 l/m 22,5 km/h (4 Bft) SW 225 0 min 0,000 mm 0 W/m 2,0 C -6,1 C 40,2 km/h (6 Bft) 99 %
13.01.2016 01:50 3,4 C 3,4 C 3,4 C 90 % 1005,2 hPa 0,0 l/m 22,5 km/h (4 Bft) W-SW 247 0 min 0,000 mm 0 W/m 1,9 C -6,2 C 45,1 km/h (6 Bft) 100 %
13.01.2016 02:00 3,3 C 3,3 C 3,4 C 90 % 1005,2 hPa 0,0 l/m 20,9 km/h (4 Bft) W-SW 247 0 min 0,025 mm 0 W/m 1,8 C -5,7 C 45,1 km/h (6 Bft) 100 %
13.01.2016 02:10 3,2 C 3,2 C 3,3 C 91 % 1005,3 hPa 0,0 l/m 19,3 km/h (3 Bft) W-SW 247 0 min 0,000 mm 0 W/m 1,9 C -5,2 C 41,8 km/h (6 Bft) 100 %
13.01.2016 02:20 3,2 C 3,2 C 3,2 C 91 % 1005,5 hPa 0,0 l/m 22,5 km/h (4 Bft) SW 225 0 min 0,000 mm 0 W/m 1,9 C -6,5 C 46,7 km/h (6 Bft) 100 %
13.01.2016 02:30 3,1 C 3,1 C 3,2 C 91 % 1005,6 hPa 0,0 l/m 20,9 km/h (4 Bft) SW 225 0 min 0,000 mm 0 W/m 1,8 C -6,0 C 40,2 km/h (6 Bft) 100 %
13.01.2016 02:40 3,0 C 3,0 C 3,2 C 91 % 1005,8 hPa 0,0 l/m 14,5 km/h (3 Bft) SW 225 0 min 0,000 mm 0 W/m 1,7 C -3,1 C 27,4 km/h (4 Bft) 100 %
13.01.2016 02:50 2,9 C 2,8 C 3,0 C 92 % 1005,9 hPa 0,0 l/m 12,9 km/h (3 Bft) SW 225 0 min 0,000 mm 0 W/m 1,7 C -2,2 C 30,6 km/h (5 Bft) 100 %
13.01.2016 03:00 2,8 C 2,8 C 2,9 C 92 % 1005,8 hPa 0,0 l/m 16,1 km/h (3 Bft) SW 225 0 min 0,025 mm 0 W/m 1,6 C -4,2 C 32,2 km/h (5 Bft) 100 %
13.01.2016 03:10 2,8 C 2,7 C 2,8 C 92 % 1006,0 hPa 0,0 l/m 14,5 km/h (3 Bft) SW 225 0 min 0,000 mm 0 W/m 1,6 C -3,3 C 30,6 km/h (5 Bft) 100 %
13.01.2016 03:20 2,7 C 2,7 C 2,7 C 92 % 1006,3 hPa 0,0 l/m 17,7 km/h (3 Bft) S-SW 202 0 min 0,000 mm 0 W/m 1,5 C -5,1 C 32,2 km/h (5 Bft) 100 %
13.01.2016 03:30 2,7 C 2,7 C 2,7 C 92 % 1006,3 hPa 0,0 l/m 14,5 km/h (3 Bft) S-SW 202 0 min 0,000 mm 0 W/m 1,5 C -3,4 C 27,4 km/h (4 Bft) 100 %
13.01.2016 03:40 2,7 C 2,7 C 2,7 C 92 % 1006,3 hPa 0,0 l/m 12,9 km/h (3 Bft) S-SW 202 0 min 0,000 mm 0 W/m 1,5 C -2,5 C 29,0 km/h (5 Bft) 100 %
13.01.2016 03:50 2,6 C 2,6 C 2,7 C 92 % 1006,3 hPa 0,0 l/m 12,9 km/h (3 Bft) S-SW 202 0 min 0,000 mm 0 W/m 1,4 C -2,6 C 27,4 km/h (4 Bft) 100 %
13.01.2016 04:00 2,6 C 2,6 C 2,7 C 92 % 1006,2 hPa 0,0 l/m 12,9 km/h (3 Bft) S-SW 202 0 min 0,000 mm 0 W/m 1,4 C -2,6 C 29,0 km/h (5 Bft) 96 %
13.01.2016 04:10 2,8 C 2,6 C 2,8 C 92 % 1006,1 hPa 0,0 l/m 17,7 km/h (3 Bft) SW 225 0 min 0,000 mm 0 W/m 1,6 C -5,0 C 35,4 km/h (5 Bft) 96 %
13.01.2016 04:20 3,0 C 2,8 C 3,0 C 92 % 1006,2 hPa 0,0 l/m 20,9 km/h (4 Bft) S-SW 202 0 min 0,000 mm 0 W/m 1,8 C -6,1 C 45,1 km/h (6 Bft) 100 %
13.01.2016 04:30 3,1 C 3,0 C 3,1 C 92 % 1006,3 hPa 0,0 l/m 17,7 km/h (3 Bft) SW 225 0 min 0,000 mm 0 W/m 1,9 C -4,6 C 37,0 km/h (5 Bft) 100 %
13.01.2016 04:40 3,1 C 3,1 C 3,1 C 92 % 1006,0 hPa 0,0 l/m 19,3 km/h (3 Bft) SW 225 0 min 0,000 mm 0 W/m 1,9 C -5,3 C 33,8 km/h (5 Bft) 100 %
13.01.2016 04:50 3,1 C 3,1 C 3,1 C 92 % 1006,1 hPa 0,0 l/m 20,9 km/h (4 Bft) S-SW 202 0 min 0,000 mm 0 W/m 1,9 C -6,0 C 37,0 km/h (5 Bft) 100 %
13.01.2016 05:00 3,2 C 3,1 C 3,2 C 91 % 1006,3 hPa 0,0 l/m 17,7 km/h (3 Bft) SW 225 0 min 0,025 mm 0 W/m 1,9 C -4,5 C 32,2 km/h (5 Bft) 100 %
13.01.2016 05:10 3,2 C 3,2 C 3,2 C 91 % 1006,2 hPa 0,0 l/m 19,3 km/h (3 Bft) SW 225 0 min 0,000 mm 0 W/m 1,9 C -5,2 C 40,2 km/h (6 Bft) 100 %
13.01.2016 05:20 3,2 C 3,2 C 3,3 C 91 % 1006,2 hPa 0,0 l/m 17,7 km/h (3 Bft) SW 225 0 min 0,000 mm 0 W/m 1,9 C -4,5 C 45,1 km/h (6 Bft) 100 %
13.01.2016 05:30 3,3 C 3,2 C 3,3 C 90 % 1006,2 hPa 0,0 l/m 19,3 km/h (3 Bft) SW 225 0 min 0,000 mm 0 W/m 1,8 C -5,1 C 38,6 km/h (5 Bft) 100 %
13.01.2016 05:40 3,4 C 3,3 C 3,4 C 90 % 1006,1 hPa 0,0 l/m 20,9 km/h (4 Bft) SW 225 0 min 0,000 mm 0 W/m 1,9 C -5,6 C 49,9 km/h (6 Bft) 100 %
13.01.2016 05:50 3,4 C 3,4 C 3,4 C 90 % 1006,1 hPa 0,2 l/m 20,9 km/h (4 Bft) SW 225 0 min 0,000 mm 0 W/m 1,9 C -5,6 C 38,6 km/h (5 Bft) 100 %
13.01.2016 06:00 3,3 C 3,3 C 3,4 C 91 % 1006,1 hPa 0,0 l/m 20,9 km/h (4 Bft) SW 225 0 min 0,025 mm 0 W/m 2,0 C -5,7 C 43,5 km/h (6 Bft) 100 %
13.01.2016 06:10 3,3 C 3,3 C 3,3 C 91 % 1006,1 hPa 0,2 l/m 24,1 km/h (4 Bft) SW 225 0 min 0,000 mm 0 W/m 2,0 C -6,9 C 57,9 km/h (7 Bft) 100 %
13.01.2016 06:20 3,2 C 3,2 C 3,3 C 91 % 1006,2 hPa 0,2 l/m 20,9 km/h (4 Bft) SW 225 0 min 0,000 mm 0 W/m 1,9 C -5,9 C 46,7 km/h (6 Bft) 100 %
13.01.2016 06:30 3,2 C 3,2 C 3,2 C 92 % 1006,3 hPa 0,2 l/m 19,3 km/h (3 Bft) SW 225 0 min 0,000 mm 0 W/m 2,0 C -5,2 C 46,7 km/h (6 Bft) 100 %
13.01.2016 06:40 3,2 C 3,1 C 3,2 C 92 % 1006,3 hPa 0,0 l/m 19,3 km/h (3 Bft) SW 225 0 min 0,000 mm 0 W/m 2,0 C -5,2 C 46,7 km/h (6 Bft) 100 %
13.01.2016 06:50 3,1 C 3,1 C 3,2 C 92 % 1006,4 hPa 0,0 l/m 19,3 km/h (3 Bft) W-SW 247 0 min 0,000 mm 0 W/m 1,9 C -5,3 C 43,5 km/h (6 Bft) 100 %
13.01.2016 07:00 3,2 C 3,1 C 3,2 C 92 % 1006,4 hPa 0,0 l/m 20,9 km/h (4 Bft) W-SW 247 0 min 0,025 mm 0 W/m 2,0 C -5,9 C 46,7 km/h (6 Bft) 100 %
13.01.2016 07:10 3,2 C 3,2 C 3,2 C 92 % 1006,7 hPa 0,2 l/m 25,7 km/h (4 Bft) SW 225 0 min 0,000 mm 0 W/m 2,0 C -7,6 C 51,5 km/h (7 Bft) 100 %
13.01.2016 07:20 3,2 C 3,2 C 3,2 C 92 % 1006,4 hPa 0,2 l/m 25,7 km/h (4 Bft) W-SW 247 0 min 0,000 mm 0 W/m 2,0 C -7,6 C 54,7 km/h (7 Bft) 100 %
13.01.2016 07:30 3,1 C 3,1 C 3,2 C 92 % 1006,7 hPa 0,2 l/m 27,4 km/h (4 Bft) SW 225 0 min 0,000 mm 0 W/m 1,9 C -8,3 C 49,9 km/h (6 Bft) 100 %
13.01.2016 07:40 3,1 C 3,1 C 3,1 C 92 % 1006,9 hPa 0,2 l/m 24,1 km/h (4 Bft) W-SW 247 0 min 0,000 mm 0 W/m 1,9 C -7,2 C 49,9 km/h (6 Bft) 91 %
13.01.2016 07:50 3,1 C 3,1 C 3,1 C 92 % 1007,2 hPa 0,4 l/m 22,5 km/h (4 Bft) W-SW 247 0 min 0,000 mm 0 W/m 1,9 C -6,6 C 43,5 km/h (6 Bft) 100 %
13.01.2016 08:00 3,0 C 3,0 C 3,1 C 92 % 1007,6 hPa 0,4 l/m 25,7 km/h (4 Bft) W-SW 247 0 min 0,025 mm 0 W/m 1,8 C -7,9 C 46,7 km/h (6 Bft) 100 %
13.01.2016 08:10 2,9 C 2,9 C 3,1 C 92 % 1007,8 hPa 0,4 l/m 25,7 km/h (4 Bft) W 270 0 min 0,000 mm 0 W/m 1,7 C -8,0 C 51,5 km/h (7 Bft) 100 %
13.01.2016 08:20 2,9 C 2,9 C 2,9 C 92 % 1008,1 hPa 0,0 l/m 19,3 km/h (3 Bft) W 270 0 min 0,000 mm 0 W/m 1,7 C -5,6 C 41,8 km/h (6 Bft) 100 %
13.01.2016 08:30 2,9 C 2,9 C 2,9 C 92 % 1008,3 hPa 0,4 l/m 22,5 km/h (4 Bft) W-SW 247 0 min 0,000 mm 0 W/m 1,7 C -6,9 C 46,7 km/h (6 Bft) 100 %
13.01.2016 08:40 3,0 C 2,9 C 3,0 C 92 % 1008,5 hPa 0,0 l/m 25,7 km/h (4 Bft) W 270 0 min 0,000 mm 12 W/m 1,8 C -7,9 C 46,7 km/h (6 Bft) 100 %
13.01.2016 08:50 3,1 C 3,0 C 3,1 C 92 % 1008,8 hPa 0,2 l/m 20,9 km/h (4 Bft) W 270 0 min 0,000 mm 21 W/m 1,9 C -6,0 C 38,6 km/h (5 Bft) 100 %
13.01.2016 09:00 3,1 C 3,1 C 3,1 C 92 % 1008,9 hPa 0,0 l/m 24,1 km/h (4 Bft) W 270 0 min 0,025 mm 12 W/m 1,9 C -7,2 C 46,7 km/h (6 Bft) 100 %
13.01.2016 09:10 3,2 C 3,1 C 3,2 C 92 % 1008,9 hPa 0,0 l/m 24,1 km/h (4 Bft) W 270 0 min 0,000 mm 19 W/m 2,0 C -7,1 C 48,3 km/h (6 Bft) 100 %
13.01.2016 09:20 3,2 C 3,2 C 3,2 C 92 % 1009,4 hPa 0,0 l/m 24,1 km/h (4 Bft) W 270 0 min 0,000 mm 49 W/m 2,0 C -7,1 C 45,1 km/h (6 Bft) 100 %
13.01.2016 09:30 3,3 C 3,2 C 3,3 C 92 % 1009,4 hPa 0,2 l/m 24,1 km/h (4 Bft) W 270 0 min 0,000 mm 47 W/m 2,1 C -6,9 C 51,5 km/h (7 Bft) 100 %
13.01.2016 09:40 3,3 C 3,3 C 3,3 C 92 % 1009,8 hPa 0,2 l/m 25,7 km/h (4 Bft) W 270 0 min 0,000 mm 39 W/m 2,1 C -7,5 C 48,3 km/h (6 Bft) 100 %
13.01.2016 09:50 3,3 C 3,3 C 3,3 C 92 % 1010,1 hPa 0,2 l/m 24,1 km/h (4 Bft) W 270 0 min 0,000 mm 54 W/m 2,1 C -6,9 C 46,7 km/h (6 Bft) 100 %
13.01.2016 10:00 3,2 C 3,2 C 3,3 C 92 % 1010,2 hPa 0,2 l/m 25,7 km/h (4 Bft) W 270 0 min 0,025 mm 67 W/m 2,0 C -7,6 C 46,7 km/h (6 Bft) 100 %
13.01.2016 10:10 3,2 C 3,2 C 3,2 C 92 % 1010,8 hPa 0,2 l/m 25,7 km/h (4 Bft) W 270 0 min 0,000 mm 56 W/m 2,0 C -7,6 C 41,8 km/h (6 Bft) 100 %
13.01.2016 10:20 3,1 C 3,1 C 3,2 C 92 % 1010,7 hPa 0,0 l/m 22,5 km/h (4 Bft) W 270 0 min 0,000 mm 42 W/m 1,9 C -6,6 C 41,8 km/h (6 Bft) 100 %
13.01.2016 10:30 3,2 C 3,1 C 3,2 C 92 % 1010,8 hPa 0,2 l/m 24,1 km/h (4 Bft) W-SW 247 0 min 0,000 mm 84 W/m 2,0 C -7,1 C 45,1 km/h (6 Bft) 100 %
13.01.2016 10:40 3,3 C 3,2 C 3,3 C 92 % 1011,2 hPa 0,0 l/m 17,7 km/h (3 Bft) W 270 0 min 0,000 mm 104 W/m 2,1 C -4,3 C 40,2 km/h (6 Bft) 100 %
13.01.2016 10:50 3,6 C 3,3 C 3,6 C 92 % 1011,4 hPa 0,0 l/m 19,3 km/h (3 Bft) W 270 10 min 0,000 mm 165 W/m 2,4 C -4,7 C 37,0 km/h (5 Bft) 100 %
13.01.2016 11:00 3,7 C 3,6 C 3,7 C 92 % 1011,6 hPa 0,0 l/m 24,1 km/h (4 Bft) W-SW 247 0 min 0,051 mm 135 W/m 2,5 C -6,4 C 48,3 km/h (6 Bft) 100 %
13.01.2016 11:10 3,7 C 3,7 C 3,7 C 92 % 1011,8 hPa 0,0 l/m 20,9 km/h (4 Bft) W 270 0 min 0,000 mm 49 W/m 2,5 C -5,2 C 43,5 km/h (6 Bft) 90 %
13.01.2016 11:20 3,7 C 3,7 C 3,7 C 92 % 1012,1 hPa 0,0 l/m 20,9 km/h (4 Bft) W 270 0 min 0,000 mm 86 W/m 2,5 C -5,2 C 38,6 km/h (5 Bft) 100 %
13.01.2016 11:30 3,8 C 3,7 C 3,8 C 92 % 1012,3 hPa 0,0 l/m 17,7 km/h (3 Bft) W 270 0 min 0,000 mm 63 W/m 2,6 C -3,7 C 33,8 km/h (5 Bft) 100 %
13.01.2016 11:40 3,8 C 3,8 C 3,8 C 91 % 1012,3 hPa 0,2 l/m 19,3 km/h (3 Bft) W 270 0 min 0,000 mm 60 W/m 2,5 C -4,4 C 40,2 km/h (6 Bft) 100 %
13.01.2016 11:50 3,8 C 3,8 C 3,8 C 91 % 1012,5 hPa 0,0 l/m 20,9 km/h (4 Bft) W-SW 247 0 min 0,000 mm 56 W/m 2,5 C -5,1 C 48,3 km/h (6 Bft) 100 %
13.01.2016 12:00 3,7 C 3,7 C 3,8 C 92 % 1012,9 hPa 0,0 l/m 16,1 km/h (3 Bft) W-SW 247 0 min 0,025 mm 42 W/m 2,5 C -3,1 C 41,8 km/h (6 Bft) 100 %
13.01.2016 12:10 3,6 C 3,6 C 3,7 C 92 % 1013,1 hPa 0,0 l/m 14,5 km/h (3 Bft) W 270 0 min 0,000 mm 25 W/m 2,4 C -2,3 C 37,0 km/h (5 Bft) 100 %
13.01.2016 12:20 3,6 C 3,6 C 3,6 C 92 % 1013,4 hPa 0,2 l/m 16,1 km/h (3 Bft) W 270 0 min 0,000 mm 69 W/m 2,4 C -3,2 C 40,2 km/h (6 Bft) 100 %
13.01.2016 12:30 3,6 C 3,6 C 3,6 C 92 % 1013,6 hPa 0,2 l/m 17,7 km/h (3 Bft) W 270 0 min 0,000 mm 76 W/m 2,4 C -4,0 C 40,2 km/h (6 Bft) 100 %
13.01.2016 12:40 3,4 C 3,4 C 3,6 C 92 % 1013,8 hPa 0,2 l/m 14,5 km/h (3 Bft) W 270 0 min 0,000 mm 58 W/m 2,2 C -2,6 C 33,8 km/h (5 Bft) 100 %
13.01.2016 12:50 3,4 C 3,4 C 3,4 C 92 % 1014,2 hPa 0,0 l/m 19,3 km/h (3 Bft) W-SW 247 0 min 0,000 mm 74 W/m 2,2 C -4,9 C 41,8 km/h (6 Bft) 100 %
13.01.2016 13:00 3,4 C 3,4 C 3,4 C 92 % 1014,3 hPa 0,2 l/m 16,1 km/h (3 Bft) W 270 0 min 0,025 mm 67 W/m 2,2 C -3,4 C 35,4 km/h (5 Bft) 90 %
13.01.2016 13:10 3,5 C 3,4 C 3,5 C 92 % 1014,4 hPa 0,0 l/m 11,3 km/h (2 Bft) W 270 0 min 0,000 mm 105 W/m 2,3 C -0,5 C 27,4 km/h (4 Bft) 100 %
13.01.2016 13:20 3,5 C 3,4 C 3,5 C 92 % 1014,6 hPa 0,0 l/m 12,9 km/h (3 Bft) W 270 0 min 0,000 mm 84 W/m 2,3 C -1,5 C 30,6 km/h (5 Bft) 100 %
13.01.2016 13:30 3,6 C 3,5 C 3,6 C 92 % 1014,6 hPa 0,2 l/m 12,9 km/h (3 Bft) W-SW 247 0 min 0,000 mm 109 W/m 2,4 C -1,4 C 33,8 km/h (5 Bft) 100 %
13.01.2016 13:40 3,7 C 3,6 C 3,7 C 92 % 1014,8 hPa 0,0 l/m 14,5 km/h (3 Bft) SW 225 10 min 0,000 mm 181 W/m 2,5 C -2,2 C 40,2 km/h (6 Bft) 100 %
13.01.2016 13:50 3,7 C 3,7 C 3,7 C 92 % 1014,9 hPa 0,2 l/m 14,5 km/h (3 Bft) W-SW 247 0 min 0,000 mm 98 W/m 2,5 C -2,2 C 25,7 km/h (4 Bft) 100 %
13.01.2016 14:00 3,6 C 3,6 C 3,7 C 92 % 1015,0 hPa 0,0 l/m 12,9 km/h (3 Bft) W-SW 247 0 min 0,025 mm 37 W/m 2,4 C -1,4 C 33,8 km/h (5 Bft) 100 %
13.01.2016 14:10 3,6 C 3,6 C 3,6 C 92 % 1015,2 hPa 0,0 l/m 16,1 km/h (3 Bft) W-SW 247 0 min 0,000 mm 53 W/m 2,4 C -3,2 C 37,0 km/h (5 Bft) 100 %
13.01.2016 14:20 3,7 C 3,6 C 3,7 C 92 % 1015,2 hPa 0,0 l/m 12,9 km/h (3 Bft) W 270 0 min 0,000 mm 60 W/m 2,5 C -1,3 C 27,4 km/h (4 Bft) 100 %
13.01.2016 14:30 3,7 C 3,7 C 3,7 C 92 % 1015,2 hPa 0,2 l/m 14,5 km/h (3 Bft) W 270 0 min 0,000 mm 76 W/m 2,5 C -2,2 C 30,6 km/h (5 Bft) 100 %
13.01.2016 14:40 3,8 C 3,7 C 3,8 C 92 % 1015,4 hPa 0,0 l/m 11,3 km/h (2 Bft) SW 225 0 min 0,000 mm 44 W/m 2,6 C -0,2 C 24,1 km/h (4 Bft) 100 %
13.01.2016 14:50 3,7 C 3,7 C 3,8 C 91 % 1015,5 hPa 0,0 l/m 14,5 km/h (3 Bft) SW 225 0 min 0,000 mm 26 W/m 2,4 C -2,2 C 35,4 km/h (5 Bft) 89 %
13.01.2016 15:00 3,7 C 3,7 C 3,7 C 91 % 1015,6 hPa 0,0 l/m 14,5 km/h (3 Bft) SW 225 0 min 0,025 mm 28 W/m 2,4 C -2,2 C 33,8 km/h (5 Bft) 100 %
13.01.2016 15:10 3,7 C 3,7 C 3,7 C 91 % 1015,7 hPa 0,0 l/m 16,1 km/h (3 Bft) SW 225 0 min 0,000 mm 54 W/m 2,4 C -3,1 C 37,0 km/h (5 Bft) 100 %
13.01.2016 15:20 3,8 C 3,7 C 3,8 C 91 % 1015,7 hPa 0,0 l/m 11,3 km/h (2 Bft) W-SW 247 0 min 0,000 mm 67 W/m 2,5 C -0,2 C 25,7 km/h (4 Bft) 100 %
13.01.2016 15:30 3,8 C 3,8 C 3,8 C 91 % 1016,0 hPa 0,0 l/m 14,5 km/h (3 Bft) SW 225 0 min 0,000 mm 69 W/m 2,5 C -2,1 C 29,0 km/h (5 Bft) 100 %
13.01.2016 15:40 3,8 C 3,8 C 3,8 C 90 % 1016,1 hPa 0,0 l/m 12,9 km/h (3 Bft) W-SW 247 0 min 0,000 mm 56 W/m 2,3 C -1,2 C 27,4 km/h (4 Bft) 100 %
13.01.2016 15:50 3,8 C 3,8 C 3,8 C 90 % 1016,2 hPa 0,0 l/m 17,7 km/h (3 Bft) SW 225 0 min 0,000 mm 19 W/m 2,3 C -3,7 C 35,4 km/h (5 Bft) 100 %
13.01.2016 16:00 3,8 C 3,8 C 3,8 C 90 % 1016,2 hPa 0,0 l/m 11,3 km/h (2 Bft) W-SW 247 0 min 0,025 mm 14 W/m 2,3 C -0,2 C 27,4 km/h (4 Bft) 98 %
13.01.2016 16:10 3,8 C 3,8 C 3,8 C 90 % 1016,5 hPa 0,0 l/m 14,5 km/h (3 Bft) SW 225 0 min 0,000 mm 11 W/m 2,3 C -2,1 C 30,6 km/h (5 Bft) 97 %
13.01.2016 16:20 3,8 C 3,8 C 3,8 C 90 % 1016,5 hPa 0,0 l/m 14,5 km/h (3 Bft) SW 225 0 min 0,000 mm 7 W/m 2,3 C -2,1 C 29,0 km/h (5 Bft) 98 %
13.01.2016 16:30 3,7 C 3,7 C 3,8 C 90 % 1016,7 hPa 0,0 l/m 16,1 km/h (3 Bft) SW 225 0 min 0,000 mm 0 W/m 2,2 C -3,1 C 38,6 km/h (5 Bft) 98 %
13.01.2016 16:40 3,6 C 3,6 C 3,7 C 91 % 1016,7 hPa 0,0 l/m 14,5 km/h (3 Bft) SW 225 0 min 0,000 mm 0 W/m 2,3 C -2,3 C 29,0 km/h (5 Bft) 88 %
13.01.2016 16:50 3,6 C 3,6 C 3,6 C 91 % 1016,7 hPa 0,0 l/m 12,9 km/h (3 Bft) SW 225 0 min 0,000 mm 0 W/m 2,3 C -1,4 C 25,7 km/h (4 Bft) 98 %
13.01.2016 17:00 3,5 C 3,5 C 3,6 C 91 % 1016,8 hPa 0,0 l/m 14,5 km/h (3 Bft) SW 225 0 min 0,025 mm 0 W/m 2,2 C -2,5 C 30,6 km/h (5 Bft) 97 %
13.01.2016 17:10 3,4 C 3,4 C 3,5 C 91 % 1016,9 hPa 0,2 l/m 17,7 km/h (3 Bft) SW 225 0 min 0,000 mm 0 W/m 2,1 C -4,2 C 33,8 km/h (5 Bft) 98 %
13.01.2016 17:20 3,4 C 3,4 C 3,5 C 91 % 1017,2 hPa 0,0 l/m 11,3 km/h (2 Bft) SW 225 0 min 0,000 mm 0 W/m 2,1 C -0,6 C 25,7 km/h (4 Bft) 97 %
13.01.2016 17:30 3,4 C 3,3 C 3,4 C 91 % 1017,2 hPa 0,0 l/m 12,9 km/h (3 Bft) SW 225 0 min 0,000 mm 0 W/m 2,1 C -1,7 C 27,4 km/h (4 Bft) 98 %
13.01.2016 17:40 3,3 C 3,3 C 3,4 C 91 % 1017,5 hPa 0,0 l/m 14,5 km/h (3 Bft) SW 225 0 min 0,000 mm 0 W/m 2,0 C -2,7 C 25,7 km/h (4 Bft) 97 %
13.01.2016 17:50 3,3 C 3,3 C 3,3 C 92 % 1017,3 hPa 0,0 l/m 12,9 km/h (3 Bft) SW 225 0 min 0,000 mm 0 W/m 2,1 C -1,8 C 30,6 km/h (5 Bft) 97 %
13.01.2016 18:00 3,3 C 3,3 C 3,3 C 92 % 1017,4 hPa 0,0 l/m 16,1 km/h (3 Bft) SW 225 0 min 0,000 mm 0 W/m 2,1 C -3,6 C 33,8 km/h (5 Bft) 98 %
13.01.2016 18:10 3,2 C 3,2 C 3,3 C 92 % 1017,4 hPa 0,2 l/m 11,3 km/h (2 Bft) W-SW 247 0 min 0,000 mm 0 W/m 2,0 C -0,8 C 22,5 km/h (4 Bft) 97 %
13.01.2016 18:20 3,2 C 3,2 C 3,2 C 92 % 1017,5 hPa 0,0 l/m 9,7 km/h (2 Bft) SW 225 0 min 0,000 mm 0 W/m 2,0 C 0,3 C 24,1 km/h (4 Bft) 98 %
13.01.2016 18:30 3,1 C 3,1 C 3,2 C 92 % 1017,5 hPa 0,0 l/m 11,3 km/h (2 Bft) SW 225 0 min 0,000 mm 0 W/m 1,9 C -1,0 C 22,5 km/h (4 Bft) 97 %
13.01.2016 18:40 3,1 C 3,1 C 3,2 C 92 % 1017,4 hPa 0,0 l/m 20,3 km/h (4 Bft) S 187 0 min 0,006 mm 0 W/m 1,9 C -5,8 C 35,4 km/h (5 Bft) 100 %
13.01.2016 18:50 3,1 C 3,1 C 3,1 C 92 % 1017,5 hPa 0,2 l/m 17,2 km/h (3 Bft) W-SW 238 0 min 0,000 mm 0 W/m 1,9 C -4,4 C 32,2 km/h (5 Bft) 100 %
13.01.2016 19:00 3,0 C 3,0 C 3,1 C 91 % 1017,6 hPa 0,0 l/m 15,0 km/h (3 Bft) SW 229 0 min 0,000 mm 0 W/m 1,7 C -3,3 C 35,4 km/h (5 Bft) 100 %
13.01.2016 19:10 2,9 C 2,9 C 3,0 C 92 % 1017,8 hPa 0,0 l/m 14,2 km/h (3 Bft) W 264 0 min 0,000 mm 0 W/m 1,7 C -3,0 C 32,2 km/h (5 Bft) 100 %
13.01.2016 19:20 2,8 C 2,8 C 2,9 C 92 % 1017,7 hPa 0,0 l/m 16,5 km/h (3 Bft) W 264 0 min 0,000 mm 0 W/m 1,6 C -4,4 C 37,0 km/h (5 Bft) 100 %
13.01.2016 19:30 2,8 C 2,8 C 2,8 C 92 % 1017,8 hPa 0,0 l/m 16,2 km/h (3 Bft) SW 228 0 min 0,000 mm 0 W/m 1,6 C -4,2 C 33,8 km/h (5 Bft) 91 %
13.01.2016 19:40 2,8 C 2,8 C 2,8 C 92 % 1017,8 hPa 0,0 l/m 15,1 km/h (3 Bft) W-SW 249 0 min 0,000 mm 0 W/m 1,6 C -3,6 C 30,6 km/h (5 Bft) 100 %
13.01.2016 19:50 2,8 C 2,8 C 2,8 C 92 % 1017,9 hPa 0,0 l/m 16,6 km/h (3 Bft) W 267 0 min 0,000 mm 0 W/m 1,6 C -4,4 C 41,8 km/h (6 Bft) 100 %
13.01.2016 20:00 2,6 C 2,6 C 2,8 C 91 % 1017,8 hPa 0,4 l/m 19,0 km/h (3 Bft) W 264 0 min 0,000 mm 0 W/m 1,3 C -5,8 C 45,1 km/h (6 Bft) 100 %
13.01.2016 20:10 2,5 C 2,5 C 2,6 C 92 % 1017,9 hPa 0,0 l/m 14,4 km/h (3 Bft) W 259 0 min 0,000 mm 0 W/m 1,3 C -3,6 C 33,8 km/h (5 Bft) 100 %
13.01.2016 20:20 2,5 C 2,5 C 2,5 C 92 % 1018,0 hPa 0,0 l/m 11,7 km/h (2 Bft) W 261 0 min 0,000 mm 0 W/m 1,3 C -1,9 C 29,0 km/h (5 Bft) 100 %
13.01.2016 20:30 2,4 C 2,4 C 2,5 C 92 % 1018,0 hPa 0,2 l/m 10,9 km/h (2 Bft) W-SW 253 0 min 0,000 mm 0 W/m 1,2 C -1,5 C 29,0 km/h (5 Bft) 100 %
13.01.2016 20:40 2,3 C 2,3 C 2,4 C 92 % 1018,1 hPa 0,0 l/m 8,1 km/h (2 Bft) SW 227 0 min 0,000 mm 0 W/m 1,1 C 0,7 C 16,1 km/h (3 Bft) 100 %
13.01.2016 20:50 2,3 C 2,3 C 2,3 C 92 % 1018,1 hPa 0,0 l/m 6,1 km/h (2 Bft) W 261 0 min 0,000 mm 0 W/m 1,1 C 2,3 C 19,3 km/h (3 Bft) 100 %
13.01.2016 21:00 2,3 C 2,3 C 2,3 C 92 % 1018,2 hPa 0,0 l/m 10,0 km/h (2 Bft) W-NW 286 0 min 0,000 mm 0 W/m 1,1 C -0,9 C 25,7 km/h (4 Bft) 99 %
13.01.2016 21:10 2,3 C 2,3 C 2,3 C 92 % 1018,2 hPa 0,0 l/m 8,0 km/h (2 Bft) W-SW 247 0 min 0,000 mm 0 W/m 1,1 C 0,8 C 20,9 km/h (4 Bft) 97 %
13.01.2016 21:20 2,2 C 2,2 C 2,3 C 92 % 1018,2 hPa 0,0 l/m 9,7 km/h (2 Bft) W 270 0 min 0,000 mm 0 W/m 1,0 C -0,8 C 30,6 km/h (5 Bft) 98 %
13.01.2016 21:30 2,2 C 2,2 C 2,2 C 92 % 1018,2 hPa 0,0 l/m 12,9 km/h (3 Bft) W-SW 247 0 min 0,000 mm 0 W/m 1,0 C -3,1 C 29,0 km/h (5 Bft) 97 %
13.01.2016 21:40 2,3 C 2,2 C 2,3 C 92 % 1018,1 hPa 0,0 l/m 12,9 km/h (3 Bft) W-SW 247 0 min 0,000 mm 0 W/m 1,1 C -2,9 C 27,4 km/h (4 Bft) 97 %
13.01.2016 21:50 2,3 C 2,3 C 2,3 C 92 % 1018,1 hPa 0,0 l/m 8,0 km/h (2 Bft) W-SW 247 0 min 0,000 mm 0 W/m 1,1 C 0,8 C 24,1 km/h (4 Bft) 98 %
13.01.2016 22:00 2,2 C 2,2 C 2,3 C 92 % 1018,1 hPa 0,0 l/m 9,7 km/h (2 Bft) W-SW 247 0 min 0,000 mm 0 W/m 1,0 C -0,8 C 22,5 km/h (4 Bft) 98 %
13.01.2016 22:10 2,2 C 2,2 C 2,2 C 92 % 1018,1 hPa 0,0 l/m 11,3 km/h (2 Bft) W-SW 247 0 min 0,000 mm 0 W/m 1,0 C -2,0 C 24,1 km/h (4 Bft) 98 %
13.01.2016 22:20 2,2 C 2,2 C 2,3 C 92 % 1018,2 hPa 0,0 l/m 9,7 km/h (2 Bft) W-SW 247 0 min 0,000 mm 0 W/m 1,0 C -0,8 C 19,3 km/h (3 Bft) 97 %
13.01.2016 22:30 2,2 C 2,2 C 2,2 C 92 % 1018,2 hPa 0,0 l/m 9,7 km/h (2 Bft) W-SW 247 0 min 0,000 mm 0 W/m 1,0 C -0,8 C 19,3 km/h (3 Bft) 98 %
13.01.2016 22:40 2,1 C 2,1 C 2,2 C 92 % 1018,3 hPa 0,0 l/m 9,7 km/h (2 Bft) W-SW 247 0 min 0,000 mm 0 W/m 0,9 C -0,9 C 19,3 km/h (3 Bft) 97 %
13.01.2016 22:50 1,9 C 1,9 C 2,1 C 92 % 1018,1 hPa 0,2 l/m 11,3 km/h (2 Bft) W-SW 247 0 min 0,000 mm 0 W/m 0,7 C -2,3 C 27,4 km/h (4 Bft) 97 %
13.01.2016 23:00 1,8 C 1,8 C 2,0 C 92 % 1018,1 hPa 0,0 l/m 8,0 km/h (2 Bft) W-SW 247 0 min 0,000 mm 0 W/m 0,6 C 0,2 C 20,9 km/h (4 Bft) 98 %
13.01.2016 23:10 1,7 C 1,7 C 1,8 C 92 % 1018,0 hPa 0,0 l/m 6,4 km/h (2 Bft) W-SW 247 0 min 0,000 mm 0 W/m 0,5 C 1,7 C 16,1 km/h (3 Bft) 97 %
13.01.2016 23:20 1,7 C 1,7 C 1,7 C 92 % 1018,0 hPa 0,0 l/m 4,8 km/h (1 Bft) W 270 0 min 0,000 mm 0 W/m 0,5 C 1,7 C 11,3 km/h (2 Bft) 89 %
13.01.2016 23:30 1,8 C 1,7 C 1,8 C 92 % 1018,0 hPa 0,0 l/m 8,0 km/h (2 Bft) W-SW 247 0 min 0,000 mm 0 W/m 0,6 C 0,2 C 22,5 km/h (4 Bft) 98 %
13.01.2016 23:40 1,8 C 1,8 C 1,8 C 92 % 1018,1 hPa 0,0 l/m 6,4 km/h (2 Bft) W 270 0 min 0,000 mm 0 W/m 0,6 C 1,8 C 16,1 km/h (3 Bft) 98 %
13.01.2016 23:50 1,9 C 1,8 C 1,9 C 92 % 1018,0 hPa 0,0 l/m 8,0 km/h (2 Bft) SW 225 0 min 0,000 mm 0 W/m 0,7 C 0,3 C 20,9 km/h (4 Bft) 97 %
_ Min-Zeit 23:10 23:10 23:20 01:00 00:00 - 23:20 - - - - - 23:10 07:30 23:20 16:40
Minimum _ 1,7 C 1,7 C 1,7 C 89 % 1004,8 hPa - 4,8 km/h (1 Bft) - - - - - 0,5 C -8,3 C 11,3 km/h (2 Bft) 88 %
_ Max-Zeit 11:30 11:40 11:30 02:50 22:40 07:50 07:30 - - 10:50 11:00 13:40 11:30 20:50 06:10 00:00
Maximum _ 3,8 C 3,8 C 3,8 C 92 % 1018,3 hPa 0,4 l/m 27,4 km/h
SW (4 Bft)
- - 10 min 0,051 mm 181 W/m 2,6 C 2,3 C 57,9 km/h
SW (7 Bft)
100 %
Durchschnitt _ 3,1 C 3,1 C 3,1 C 92 % 1012,0 hPa #7,6 l/m 16,6 km/h (3 Bft) SW - #20 min. #0,432 mm 60 W/m 1,9 C -3,7 C 35,2 km/h (5 Bft) 99 %
PRIVATE WETTERSTATION BILLIGHEIM-ALLFELD - www.neckar-odenwald-wetter.de - Holger Sonntag